Weather History for KOJC - November, 2012

Change the Weather History Date:

Wednesday, November 14, 2012

  Actual Average Record
Temperature  
Mean Temperature 44 °F 45 °F  
Max Temperature 55 °F 54 °F 80 °F (1964)
Min Temperature 32 °F 35 °F 8 °F (1959)
Degree Days  
Heating Degree Days 21 20  
Month to date heating degree days 220 240  
Since 1 July heating degree days 610 565  
Cooling Degree Days 0 0  
Month to date cooling degree days 3 0  
Year to date cooling degree days 1831 1349  
Moisture  
Dew Point 27 °F    
Average Humidity 52    
Maximum Humidity 75    
Minimum Humidity 29    
Precipitation  
Precipitation 0.00 in 0.09 in 0.37 in (1972)
Month to date precipitation 1.43 1.31  
Year to date precipitation 24.27 37.22  
Sea Level Pressure  
Sea Level Pressure 30.34 in    
Wind  
Wind Speed 5 mph (South)    
Max Wind Speed 12 mph    
Max Gust Speed 15 mph    
Visibility 10 miles    
Events      
T = Trace of Precipitation, MM = Missing Value Source: NWS Daily Summary

Daily Weather History Graph

Daily Weather History Graph

Search for Another Location

Airport or City:

Trip Planner

Search our weather history database for the weather conditions in past years. The results will help you decide how hot, cold, wet, or windy it might be!

Date:

Astronomy

Nov. 14, 2012 Rise Set
Actual Time 7:00 AM CST 5:05 PM CST
Civil Twilight 6:32 AM CST 5:34 PM CST
Nautical Twilight 6:00 AM CST 6:06 PM CST
Astronomical Twilight 5:28 AM CST 6:37 PM CST
Moon 7:50 AM CST (11/14) 5:55 PM CST (11/14)
Length of Visible Light 11h 01m
Length of Day
10h 04m
New Moon, 1% of the Moon is Illuminated
Nov 14
New Moon
Nov 20
First Quarter
Nov 28
Full
Dec 6
Last Quarter
Dec 13
New

Hourly Weather History & Observations

Time (CST) Temp. Windchill Dew Point Humidity Pressure Visibility Wind Dir Wind Speed Gust Speed Precip Events Conditions
12:53 AM 39.0 °F - 28.9 °F 67% 30.38 in 10.0 mi Calm Calm - N/A   Clear
1:53 AM 39.0 °F 35.7 °F 28.9 °F 67% 30.38 in 10.0 mi SSE 4.6 mph - N/A   Clear
2:53 AM 39.9 °F 36.7 °F 28.0 °F 63% 30.38 in 10.0 mi South 4.6 mph - N/A   Clear
3:53 AM 39.0 °F 36.8 °F 28.0 °F 65% 30.38 in 10.0 mi South 3.5 mph - N/A   Clear
4:53 AM 37.0 °F 33.3 °F 27.0 °F 67% 30.38 in 10.0 mi SSE 4.6 mph - N/A   Clear
5:53 AM 33.1 °F 28.7 °F 26.1 °F 75% 30.39 in 10.0 mi South 4.6 mph - N/A   Clear
6:53 AM 33.1 °F 28.7 °F 27.0 °F 78% 30.40 in 10.0 mi SSE 4.6 mph - N/A   Clear
7:53 AM 33.1 °F 28.7 °F 27.0 °F 78% 30.41 in 10.0 mi South 4.6 mph - N/A   Clear
8:53 AM 41.0 °F 37.1 °F 28.9 °F 62% 30.42 in 10.0 mi South 5.8 mph - N/A   Clear
9:53 AM 46.9 °F - 28.0 °F 48% 30.41 in 10.0 mi SSW 10.4 mph - N/A   Clear
10:53 AM 51.1 °F - 28.0 °F 41% 30.39 in 10.0 mi South 9.2 mph - N/A   Clear
11:53 AM 53.1 °F - 26.1 °F 35% 30.37 in 10.0 mi SW 6.9 mph - N/A   Clear
12:53 PM 55.0 °F - 26.1 °F 33% 30.34 in 10.0 mi South 9.2 mph - N/A   Clear
1:53 PM 55.0 °F - 24.1 °F 30% 30.32 in 10.0 mi Variable 6.9 mph - N/A   Clear
2:53 PM 55.0 °F - 24.1 °F 30% 30.30 in 10.0 mi SSW 9.2 mph - N/A   Clear
3:53 PM 54.0 °F - 23.0 °F 30% 30.30 in 10.0 mi SSW 8.1 mph - N/A   Clear
4:53 PM 48.9 °F - 27.0 °F 43% 30.28 in 10.0 mi South 5.8 mph - N/A   Clear
5:53 PM 45.0 °F 41.8 °F 26.1 °F 48% 30.28 in 10.0 mi SSE 5.8 mph - N/A   Clear
6:53 PM 45.0 °F 42.6 °F 25.0 °F 46% 30.29 in 10.0 mi SE 4.6 mph - N/A   Clear
7:53 PM 42.1 °F - 26.1 °F 53% 30.30 in 10.0 mi Calm Calm - N/A   Clear
8:53 PM 39.9 °F 37.8 °F 26.1 °F 58% 30.30 in 10.0 mi SSE 3.5 mph - N/A   Clear
9:53 PM 39.9 °F 37.8 °F 26.1 °F 58% 30.29 in 10.0 mi SE 3.5 mph - N/A   Clear
10:53 PM 37.9 °F 35.5 °F 26.1 °F 62% 30.28 in 10.0 mi SSE 3.5 mph - N/A   Clear
11:53 PM 39.0 °F 35.7 °F 26.1 °F 60% 30.28 in 10.0 mi SSE 4.6 mph - N/A   Clear